TimePDT,TemperatureF,Dew PointF,Humidity,Sea Level PressureIn,VisibilityMPH,Wind Direction,Wind SpeedMPH,Gust SpeedMPH,PrecipitationIn,Events,Conditions,WindDirDegrees,DateUTC
12:53 AM,57.0,48.0,72,30.12,10.0,Variable,3.5,-,N/A,,Clear,0,2013-08-21 07:53:00
1:53 AM,55.9,48.0,75,30.11,10.0,North,3.5,-,N/A,,Clear,360,2013-08-21 08:53:00
2:53 AM,55.9,48.0,75,30.10,10.0,Variable,4.6,-,N/A,,Clear,0,2013-08-21 09:53:00
3:53 AM,55.9,48.0,75,30.09,10.0,North,4.6,-,N/A,,Clear,10,2013-08-21 10:53:00
4:53 AM,55.0,48.9,80,30.09,10.0,North,5.8,-,N/A,,Clear,360,2013-08-21 11:53:00
5:53 AM,55.0,48.9,80,30.09,10.0,North,3.5,-,N/A,,Clear,10,2013-08-21 12:53:00
6:53 AM,55.0,50.0,83,30.10,10.0,NNE,3.5,-,N/A,,Clear,20,2013-08-21 13:53:00
7:53 AM,57.0,50.0,77,30.10,10.0,Variable,3.5,-,N/A,,Clear,0,2013-08-21 14:53:00
8:53 AM,59.0,50.0,72,30.10,10.0,NNE,4.6,-,N/A,,Clear,20,2013-08-21 15:53:00
9:53 AM,64.0,48.9,58,30.10,10.0,Variable,4.6,-,N/A,,Clear,0,2013-08-21 16:53:00
10:53 AM,66.0,48.9,54,30.10,10.0,NNE,4.6,-,N/A,,Clear,20,2013-08-21 17:53:00
11:53 AM,68.0,48.9,50,30.09,10.0,Variable,6.9,-,N/A,,Clear,0,2013-08-21 18:53:00
12:53 PM,71.1,51.1,49,30.07,10.0,NNW,8.1,-,N/A,,Clear,330,2013-08-21 19:53:00
1:53 PM,72.0,51.1,48,30.06,10.0,NW,10.4,16.1,N/A,,Clear,320,2013-08-21 20:53:00
2:53 PM,73.0,51.1,46,30.04,10.0,North,9.2,18.4,N/A,,Clear,350,2013-08-21 21:53:00
3:53 PM,75.0,51.1,43,30.01,10.0,North,8.1,-,N/A,,Clear,360,2013-08-21 22:53:00
4:53 PM,73.9,51.1,45,30.00,10.0,North,8.1,-,N/A,,Clear,350,2013-08-21 23:53:00
5:53 PM,73.9,50.0,43,29.99,10.0,North,8.1,-,N/A,,Clear,350,2013-08-22 00:53:00
6:53 PM,73.0,48.9,42,29.97,10.0,NNW,5.8,-,N/A,,Clear,340,2013-08-22 01:53:00
7:53 PM,70.0,48.0,46,29.97,10.0,NNW,5.8,-,N/A,,Clear,340,2013-08-22 02:53:00
8:53 PM,66.9,46.9,49,29.98,10.0,Calm,Calm,-,N/A,,Clear,0,2013-08-22 03:53:00
9:53 PM,64.9,48.9,56,29.98,10.0,North,5.8,-,N/A,,Clear,360,2013-08-22 04:53:00
10:53 PM,62.1,50.0,65,29.98,10.0,Calm,Calm,-,N/A,,Clear,0,2013-08-22 05:53:00
11:53 PM,60.1,48.9,67,29.98,10.0,NNE,4.6,-,N/A,,Clear,20,2013-08-22 06:53:00